Regional Weather Roundup
Issued by NWS

Home | Current Version | Previous Version | Graphics & Text | Print | Product List | Glossary On
Versions: 1 2 3 4 5 6 7 8 9 10 11 12 13 14 15 16 17 18 19 20 21 22 23 24 25 26 27 28 29 30 31 32 33 34 35 36 37 38 39 40 41 42 43 44 45 46 47 48
000
ASUS45 KCYS 041610
RWRWY

WYOMING REGIONAL WEATHER ROUNDUP
NATIONAL WEATHER SERVICE CHEYENNE WY
900 AM MST WED MAR 04 2015

NOTE:  "FAIR" INDICATES FEW OR NO CLOUDS BELOW 12,000 FEET
WITH NO SIGNIFICANT WEATHER AND/OR OBSTRUCTIONS TO VISIBILITY.

WYZ001-041700-
YELLOWSTONE NATIONAL PARK

CITY           SKY/WX    TMP DP  RH WIND       PRES   REMARKS
LK YELLOWSTONE   N/A    -11 -16  78 CALM      30.04R
W YELLOWSTONE  NOT AVBL

$$
WYZ002>013-054>058-071-098>099-041700-
NORTHERN WYOMING

CITY           SKY/WX    TMP DP  RH WIND       PRES   REMARKS
JACKSON        SUNNY     -4  -8  84 N7        30.10R WCI -18
CODY           FAIR       9   1  72 CALM      30.12R
GREYBULL       FAIR       6   0  76 CALM      30.23R
WORLAND        FAIR       7  -2  66 CALM      30.20R
SHERIDAN       LGT SNOW   8   3  80 CALM      30.19R VSB 1
BUFFALO        PTSUNNY    8   0  69 N3        30.11R
GILLETTE       CLOUDY     8  -3  61 NW10      30.15R WCI  -6
HULETT         FAIR       9   0  66 W7        30.15R WCI  -3
NEWCASTLE      FAIR       9  -2  61 NW18G24   30.16R WCI -10

$$
WYZ014>020-022>026-101>103-041700-
CENTRAL WYOMING

CITY           SKY/WX    TMP DP  RH WIND       PRES   REMARKS
BIG PINEY      FAIR      11   1  64 N3        30.04R
PINEDALE       FAIR       0  -8  71 NW5       30.05R WCI -10
DUBOIS         FAIR       3  -6  66 NW16      29.98R WCI -16
LANDER         FAIR       1  -6  72 W3        30.12R
RIVERTON       FAIR       1  -3  83 CALM      30.13R
CASPER         FAIR       0  -5  79 SW12      30.11R WCI -17
DOUGLAS        FAIR      -1  -6  79 NW9       30.15R WCI -16

$$
WYZ021-027>030-104>119-041700-
SOUTHERN WYOMING

CITY           SKY/WX    TMP DP  RH WIND       PRES   REMARKS
EVANSTON       FAIR      17  13  84 SW8       30.04R WCI   7
FORT BRIDGER   CLOUDY    16  13  86 W8        30.06R WCI   6
ROCK SPRINGS   CLOUDY     4   2  91 CALM      30.05R
DIXON          LGT SNOW   8   3  80 CALM      30.08R
RAWLINS        FAIR      -5  -9  83 N5        30.04R WCI -16
SARATOGA       CLOUDY    -2  -6  84 CALM      30.02R FOG
LARAMIE        FAIR       2  -2  83 CALM      29.98R
CHEYENNE       FAIR      11  -3  53 W10       30.06R WCI  -3
TORRINGTON     FAIR      12   1  61 NW7       30.17R WCI   1
PINE BLUFFS    CLOUDY    14   5  67 W8        30.13R WCI   3

$$


USA.gov is the U.S. government's official web portal to all federal, state and local government web resources and services.